This demonstration page uses our WeatherBlox Daily Observations layout. Learn more.

Left ArrowRight Arrow

44.8408, -93.29828

Hourly Observations for July 2, 2017

Temp ( °F °C ) Dew Point ( °F °C ) Humidity (%) Winds ( mph kmh ) Pressure ( in mb ) Visibility ( mi km ) Precip ( " mm )
12:53 am 00:53 Mostly Cloudy 70 21.1 57 13.9 64 64 SW 7 11 29.90 1013 10 16 0.00 0.00
1:53 am 01:53 Mostly Cloudy 70 21.1 57 13.9 64 64 W 9 15 29.93 1014 10 16 0.00 0.00
2:53 am 02:53 Cloudy 68 20 58 14.4 70 70 WSW 6 9 29.92 1013 10 16 0.00 0.00
3:53 am 03:53 Cloudy 69 20.6 59 15 70 70 WNW 6 9 29.93 1013 10 16 0.00 0.00
4:53 am 04:53 Cloudy 67 19.4 59 15 76 76 N 10 17 29.94 1014 10 16 0.00 0.00
5:53 am 05:53 Cloudy 67 19.4 59 15 76 76 NNE 6 9 29.96 1015 10 16 0.00 0.00
6:53 am 06:53 Mostly Cloudy 65 18.3 58 14.4 78 78 NNE 7 11 29.98 1015 10 16 0.00 0.00
7:53 am 07:53 Mostly Cloudy 67 19.4 57 13.9 71 71 NNE 6 9 29.98 1015 10 16 0.00 0.00
8:53 am 08:53 Partly Cloudy 69 20.6 57 13.9 66 66 NNE 10 17 29.99 1016 10 16 0.00 0.00
9:53 am 09:53 Partly Cloudy 72 22.2 56 13.3 57 57 NNE 10 17 30.00 1016 10 16 0.00 0.00
10:53 am 10:53 Partly Cloudy 73 22.8 55 12.8 53 53 NNE 8 13 30.00 1016 10 16 0.00 0.00
11:53 am 11:53 Partly Cloudy 74 23.3 52 11.1 46 46 VRB 7 11 30.01 1016 10 16 0.00 0.00
12:37 pm 12:37 Partly Cloudy 75 23.9 51 10.6 43 43 N 9 15 29.97 1015 10 16 0.00 0.00
12:53 pm 12:53 Partly Cloudy 75 23.9 51 10.6 43 43 VRB 6 9 30.02 1017 10 16 0.00 0.00
1:07 pm 13:07 Partly Cloudy 75 23.9 51 10.6 43 43 NNE 12 19 29.97 1015 10 16 0.00 0.00
1:53 pm 13:53 Partly Cloudy 77 25 49 9.4 37 37 VRB 7 11 30.01 1016 10 16 0.00 0.00
2:53 pm 14:53 Mostly Sunny 79 26.1 50 10 36 36 N 7 11 30.01 1016 10 16 0.00 0.00
3:53 pm 15:53 Mostly Sunny 79 26.1 50 10 36 36 VRB 6 9 30.01 1016 10 16 0.00 0.00
4:53 pm 16:53 Mostly Sunny 80 26.7 51 10.6 37 37 Calm 30.01 1016 10 16 0.00 0.00
5:53 pm 17:53 Mostly Sunny 79 26.1 51 10.6 38 38 NNE 8 13 30.01 1016 10 16 0.00 0.00
6:53 pm 18:53 Mostly Sunny 79 26.1 51 10.6 38 38 NE 9 15 30.00 1016 10 16 0.00 0.00
7:53 pm 19:53 Mostly Sunny 78 25.6 51 10.6 39 39 NE 9 15 30.01 1016 10 16 0.00 0.00
8:53 pm 20:53 Mostly Sunny 76 24.4 51 10.6 42 42 NE 8 13 30.00 1016 10 16 0.00 0.00
9:53 pm 21:53 Mostly Clear 72 22.2 52 11.1 50 50 NE 7 11 30.02 1017 10 16 0.00 0.00
10:53 pm 22:53 Mostly Clear 71 21.7 52 11.1 51 51 VRB 3 6 30.02 1017 10 16 0.00 0.00
11:53 pm 23:53 Clear 68 20 52 11.1 57 57 NE 5 7 30.04 1017 10 16 0.00 0.00

Powered by AerisWeather